CZ-2F DEB, 67718

Orbit data source: Space-Track

CZ-2F DEB, 67718 is space debris in LEO originally from a launch on Sat, 07 Feb 2026 UTC launched from the Jiuquan Satellite Launch Center, China (JSC). Debris objects in space refer to the collection of defunct objects orbiting the Earth. Examples of debris include non-operational satellites, rocket bodies, and fragments generated from explosions, collisions, or faulty payload assembly.

Loading next visibility...
Identifier
67718, 2026-024E
Orbit
LEO
Country
Flag of CNCN / PRC
Related business
Manufacturer
CALT?
Mission
Spacecraft
Bus & Motor
Unknown
Mass
1 kg wet, 1 kg dry
Launch date (UTC)
2026-02-07 (2 months ago)
Launch vehicle
Unknown
Launch site
Jiuquan Satellite Launch Center, China (JSC)
Object type
Payload
Rocket body
Debris
Shape & HBR
Unknown shape, 1.1 m
Radar Cross Section
RCS unknown

Expand to show TLE details & history
Last TLE update: 3 days ago

TLE from 3 days ago
0 CZ-2F DEB
1 67718U 26024E   26101.51931949  .00435660  00000-0  44777-2 0  9999
2 67718  50.3117 214.5899 0159754  51.5788 309.9402 15.49012792  9681
Epoch: 2026-04-11T12:27Z
TLE epoch observation values (Epoch: 2026-04-11T12:27:49.203Z)
Latitude
-0.00004°
Longitude
-172.10261°
Altitude
351.528 km
Speed
7.738 km/s
True Right ascension
14h 18m 21s
True Declination
0° 00' 00"
Sunlit
Object was in full shadow at epoch
Visualization orbit readout
Latitude
Unknown
Longitude
Unknown
Altitude
Unknown
Speed
Unknown
Apparent Right ascension
Unknown
Apparent Declination
Unknown
Sunlit
N/A
Visualization observer readout
Local Sidereal Time
19:34:49
Azimuth
Unknown
Elevation
Unknown
Doppler factor
Unknown
Orbital elements
Apogee altitude
528.95 km
Perigee altitude
311.733 km
Semi-major axis
6,798.478 km
Eccentricity
0.01598
Inclination
50.3117°
RAAN
214.5899°
Arg. of periapsis
51.5788°
True anomaly
308.51854°
Mean anomaly
309.9402°
Eccentric anomaly
309.23119°
Mean motion
3.87191 °/min
Orbital period
92.98 mins
BSTAR
0.0044777
Loading maneuver chart data...
Computing Atmospheric mass density...
Loading historical data...
Loading historical data...
Loading historical data...
Loading historical data...
Loading historical data...
Loading historical data...
Loading historical data...

Documentation

Showing up to 5 results
|